Location: ??????
(41.3794°N, 22.5014°E)
Time: 20:14:13
(UTC+00:00)

CZ-4B R/B - Pass Details

Date: 30 November 2020
Orbit: 390 x 458 km, 97.6° (Epoch: 19 January)

Event Time Altitude Azimuth Distance (km) Brightness Sun altitude
Exits shadow 16:09:10 - 18° (NNE) 1,520 3.7 -12.5°
Reaches altitude 10° 16:09:19 10° 18° (NNE) 1,461 3.6 -12.5°
Maximum altitude 16:12:24 66° 101° (E) 450 1.1 -13.0°
Drops below altitude 10° 16:15:33 10° 185° (S) 1,481 4.3 -13.6°
Sets 16:17:34 0° 188° (S) 2,351 5.4 -14.0°
